Weather History for KBIX - January, 2014

Change the Weather History Date:

Friday, January 3, 2014

  Actual Average Record
Temperature  
Mean Temperature 36 °F -  
Max Temperature 44 °F 61 °F 73 °F (1952)
Min Temperature 28 °F 45 °F 19 °F (1979)
Degree Days  
Heating Degree Days 29    
Moisture  
Dew Point 18 °F    
Average Humidity 52    
Maximum Humidity 72    
Minimum Humidity 28    
Precipitation  
Precipitation 0.00 in - - ()
Sea Level Pressure  
Sea Level Pressure 30.38 in    
Wind  
Wind Speed 11 mph (NE)    
Max Wind Speed 20 mph    
Max Gust Speed 24 mph    
Visibility 10 miles    
Events      
Averages and records for this station are not official NWS values.
T = Trace of Precipitation, MM = Missing Value Source: NWS Daily Summary

Daily Weather History Graph

Daily Weather History Graph

Search for Another Location

Airport or City:

Trip Planner

Search our weather history database for the weather conditions in past years. The results will help you decide how hot, cold, wet, or windy it might be!

Date:

Astronomy

Jan. 03, 2014 Rise Set
Actual Time 6:52 AM CST 5:07 PM CST
Civil Twilight 6:26 AM CST 5:34 PM CST
Nautical Twilight 5:56 AM CST 6:03 PM CST
Astronomical Twilight 5:27 AM CST 6:33 PM CST
Moon 8:30 AM CST (1/3) 8:02 PM CST (1/3)
Length of Visible Light 11h 07m
Length of Day
10h 14m
Waxing Crescent, 8% of the Moon is Illuminated
Jan 3
Waxing Crescent
Jan 7
First Quarter
Jan 15
Full
Jan 23
Last Quarter
Jan 30
New

Hourly Weather History & Observations

Time (CST) Temp. Windchill Dew Point Humidity Pressure Visibility Wind Dir Wind Speed Gust Speed Precip Events Conditions
12:58 AM 35.1 °F - 22.8 °F 61% 30.36 in - North - - N/A   Clear
1:58 AM 33.6 °F - 22.6 °F 64% 30.37 in - North - - N/A   Clear
2:58 AM 32.2 °F - 22.3 °F 67% 30.38 in - North - - N/A   Clear
3:58 AM 30.9 °F - 21.2 °F 67% 30.38 in - North - - N/A   Clear
4:58 AM 30.0 °F - 20.7 °F 68% 30.41 in - North - - N/A   Clear
5:58 AM 29.5 °F 20.4 °F 20.5 °F 69% 30.42 in 10.0 mi NNE 10.4 mph - N/A   Clear
6:58 AM 28.8 °F 18.4 °F 20.7 °F 72% 30.43 in 10.0 mi NNE 12.7 mph 19.6 mph N/A   Clear
7:58 AM 29.7 °F 19.1 °F 18.9 °F 64% 30.44 in 10.0 mi NNE 13.8 mph 23.0 mph N/A   Clear
8:58 AM 32.0 °F 20.1 °F 17.2 °F 55% 30.44 in 10.0 mi NE 19.6 mph 24.2 mph N/A   Clear
9:58 AM 34.9 °F 25.3 °F 16.2 °F 46% 30.43 in 10.0 mi NNE 15.0 mph 23.0 mph N/A   Clear
10:58 AM 38.3 °F 30.5 °F 14.2 °F 37% 30.43 in 10.0 mi NE 12.7 mph - N/A   Clear
11:58 AM 40.8 °F 35.0 °F 14.5 °F 34% 30.39 in 10.0 mi NNE 9.2 mph - N/A   Clear
12:58 PM 42.6 °F 36.8 °F 13.5 °F 31% 30.36 in 10.0 mi NNE 10.4 mph - N/A   Clear
1:58 PM 44.6 °F 38.8 °F 13.3 °F 28% 30.35 in 10.0 mi NE 11.5 mph - N/A   Clear
2:58 PM 44.4 °F 38.2 °F 13.6 °F 29% 30.34 in 10.0 mi NE 12.7 mph - N/A   Clear
3:58 PM 43.9 °F 37.9 °F 15.4 °F 32% 30.35 in 10.0 mi NNE 11.5 mph - N/A   Clear
4:58 PM 41.7 °F 37.3 °F 16.5 °F 36% 30.35 in 10.0 mi NNE 6.9 mph - N/A   Clear
5:58 PM 38.5 °F 35.0 °F 18.7 °F 45% 30.35 in 10.0 mi NNE 4.6 mph - N/A   Clear
6:58 PM 36.7 °F 30.5 °F 19.9 °F 51% 30.34 in 10.0 mi NE 8.1 mph - N/A   Clear
7:58 PM 34.5 °F 29.4 °F 19.6 °F 54% 30.35 in 10.0 mi ENE 5.8 mph - N/A   Clear
8:58 PM 34.5 °F 30.4 °F 18.3 °F 52% 30.36 in 10.0 mi East 4.6 mph - N/A   Clear
9:58 PM 34.0 °F 28.0 °F 20.3 °F 57% 30.36 in 10.0 mi ENE 6.9 mph - N/A   Clear
10:58 PM 32.9 °F 25.9 °F 19.8 °F 59% 30.34 in 10.0 mi ENE 8.1 mph - N/A   Clear
11:58 PM 32.4 °F 25.3 °F 21.2 °F 63% 30.32 in 10.0 mi ENE 8.1 mph - N/A   Clear